OK2ARM-12 Weather Reports


Display with metric or nautical units.
time (UTC)temp
F
wind
direction
speed
MPH
gust
MPH
rain 1hr
in
rain 24hr
in
rain mn
in
humidity
%
barometer
mb
20260507192133 55 0.0 0.0 0.00 0.00 0.00 57 1014.2
20260507191133 55 0.0 0.0 0.00 0.00 0.00 56 1014.1
20260507184909 56 0.0 0.0 0.00 0.00 0.00 54 1013.8
20260507182646 56 0.0 0.0 0.00 0.00 0.00 52 1013.4
20260507181647 57 0.0 0.0 0.00 0.00 0.00 51 1013.1
20260507180645 57 0.0 0.0 0.00 0.00 0.00 51 1013.0
20260507171935 59 0.0 0.0 0.00 0.00 0.00 48 1012.7
20260507170935 58 0.0 0.0 0.00 0.00 0.00 49 1012.7
20260507164711 60 0.0 0.0 0.00 0.00 0.00 49 1012.5
20260507163711 59 0.0 0.0 0.00 0.00 0.00 49 1012.4
20260507162711 60 0.0 0.0 0.00 0.00 0.00 49 1012.4
20260507161712 60 0.0 0.0 0.00 0.00 0.00 51 1012.4
20260507160711 59 0.0 0.0 0.00 0.00 0.00 50 1012.2
20260507155711 60 0.0 0.0 0.00 0.00 0.00 50 1012.3
20260507154711 61 0.0 0.0 0.00 0.00 0.00 48 1012.3
20260507153711 62 0.0 0.0 0.00 0.00 0.00 48 1012.4
20260507152711 60 0.0 0.0 0.00 0.00 0.00 48 1012.3
20260507151711 62 0.0 0.0 0.00 0.00 0.00 44 1012.3
20260507150711 63 0.0 0.0 0.00 0.00 0.00 43 1012.2
20260507145711 61 0.0 0.0 0.00 0.00 0.00 43 1012.2
20260507144711 64 0.0 0.0 0.00 0.00 0.00 44 1012.1
20260507141223 62 0.0 0.0 0.00 0.00 0.00 44 1012.2
20260507140223 62 0.0 0.0 0.00 0.00 0.00 44 1012.2
20260507135222 62 0.0 0.0 0.00 0.00 0.00 45 1012.2
20260507134223 61 0.0 0.0 0.00 0.00 0.00 47 1012.1
20260507133223 62 0.0 0.0 0.00 0.00 0.00 43 1012.1
20260507132222 62 0.0 0.0 0.00 0.00 0.00 44 1012.1
20260507131222 61 0.0 0.0 0.00 0.00 0.00 44 1012.2
20260507130222 62 0.0 0.0 0.00 0.00 0.00 41 1012.2
20260507125222 62 0.0 0.0 0.00 0.00 0.00 43 1012.3
20260507124223 62 0.0 0.0 0.00 0.00 0.00 43 1012.1
20260507123223 61 0.0 0.0 0.00 0.00 0.00 45 1012.2
20260507122222 62 0.0 0.0 0.00 0.00 0.00 42 1012.2
20260507121223 61 0.0 0.0 0.00 0.00 0.00 44 1012.2
20260507120222 61 0.0 0.0 0.00 0.00 0.00 45 1012.3
20260507115222 61 0.0 0.0 0.00 0.00 0.00 46 1012.4
20260507114222 62 0.0 0.0 0.00 0.00 0.00 47 1012.3
20260507113222 61 0.0 0.0 0.00 0.00 0.00 48 1012.4
20260507112223 60 0.0 0.0 0.00 0.00 0.00 51 1012.4
20260507111222 61 0.0 0.0 0.00 0.00 0.00 50 1012.3
20260507110223 61 0.0 0.0 0.00 0.00 0.00 50 1012.3
20260507105222 60 0.0 0.0 0.00 0.00 0.00 52 1012.4
20260507104223 60 0.0 0.0 0.00 0.00 0.00 51 1012.4
20260507101958 59 0.0 0.0 0.00 0.00 0.00 51 1012.4
20260507100959 60 0.0 0.0 0.00 0.00 0.00 53 1012.4
20260507095958 59 0.0 0.0 0.00 0.00 0.00 54 1012.4
20260507094959 59 0.0 0.0 0.00 0.00 0.00 56 1012.3
20260507093959 57 0.0 0.0 0.00 0.00 0.00 57 1012.3
20260507092958 57 0.0 0.0 0.00 0.00 0.00 58 1012.3
20260507091959 57 0.0 0.0 0.00 0.00 0.00 61 1012.2
20260507090959 57 0.0 0.0 0.00 0.00 0.00 63 1012.2
20260507085959 57 0.0 0.0 0.00 0.00 0.00 63 1012.0
20260507084958 56 0.0 0.0 0.00 0.00 0.00 65 1011.9
20260507083958 56 0.0 0.0 0.00 0.00 0.00 65 1012.0
20260507080512 55 0.0 0.0 0.00 0.00 0.00 66 1011.6
20260507075511 56 0.0 0.0 0.00 0.00 0.00 68 1011.7
20260507074511 54 0.0 0.0 0.00 0.00 0.00 70 1011.7
20260507073511 54 0.0 0.0 0.00 0.00 0.00 72 1011.7
20260507072511 53 0.0 0.0 0.00 0.00 0.00 72 1011.6
20260507071511 53 0.0 0.0 0.00 0.00 0.00 74 1011.5
20260507070512 53 0.0 0.0 0.00 0.00 0.00 75 1011.5
20260507065511 53 0.0 0.0 0.00 0.00 0.00 75 1011.5
20260507064511 53 0.0 0.0 0.00 0.00 0.00 75 1011.3
20260507062247 53 0.0 0.0 0.00 0.00 0.00 76 1011.2
20260507061247 53 0.0 0.0 0.00 0.00 0.00 76 1010.9
20260507060247 53 0.0 0.0 0.00 0.00 0.00 77 1010.8
20260507055248 53 0.0 0.0 0.00 0.00 0.00 78 1010.7
20260507054247 52 0.0 0.0 0.00 0.00 0.00 80 1010.7
20260507052024 52 0.0 0.0 0.00 0.00 0.00 85 1010.6
20260507051025 52 0.0 0.0 0.00 0.00 0.00 86 1010.5
20260507044800 51 0.0 0.0 0.00 0.00 0.00 87 1010.1
20260507043800 51 0.0 0.0 0.00 0.00 0.00 88 1010.0
20260507042800 51 0.0 0.0 0.00 0.00 0.00 89 1009.8
20260507041800 51 0.0 0.0 0.00 0.00 0.00 91 1009.8
20260507040800 50 0.0 0.0 0.00 0.00 0.00 91 1009.8
20260507035801 50 0.0 0.0 0.00 0.00 0.00 89 1009.7
20260507033537 51 0.0 0.0 0.00 0.00 0.00 89 1009.4
20260507032536 51 0.0 0.0 0.00 0.00 0.00 90 1009.4
20260507031536 50 0.0 0.0 0.00 0.00 0.00 91 1009.2
20260507030536 50 0.0 0.0 0.00 0.00 0.00 91 1009.2
20260507023050 51 0.0 0.0 0.00 0.00 0.00 87 1008.9
20260507022049 51 0.0 0.0 0.00 0.00 0.00 85 1008.9
20260507021050 51 0.0 0.0 0.00 0.00 0.00 82 1009.0
20260507020049 51 0.0 0.0 0.00 0.00 0.00 82 1008.8
20260507013825 51 0.0 0.0 0.00 0.00 0.00 83 1008.4
20260507012825 51 0.0 0.0 0.00 0.00 0.00 84 1008.2
20260507011825 51 0.0 0.0 0.00 0.00 0.00 84 1008.2
20260507010825 51 0.0 0.0 0.00 0.00 0.00 85 1008.2
20260507005825 51 0.0 0.0 0.00 0.00 0.00 87 1008.1
20260507004825 51 0.0 0.0 0.00 0.00 0.00 87 1008.1
20260507003825 51 0.0 0.0 0.00 0.00 0.00 86 1007.9
20260507002825 51 0.0 0.0 0.00 0.00 0.00 86 1007.6
20260507001825 51 0.0 0.0 0.00 0.00 0.00 85 1007.8
20260507000825 52 0.0 0.0 0.00 0.00 0.00 85 1007.8
20260506235825 52 0.0 0.0 0.00 0.00 0.00 85 1007.8
20260506232338 52 0.0 0.0 0.00 0.00 0.00 84 1007.4
20260506231338 52 0.0 0.0 0.00 0.00 0.00 84 1007.1
20260506230338 52 0.0 0.0 0.00 0.00 0.00 83 1006.7
20260506225338 53 0.0 0.0 0.00 0.00 0.00 84 1006.7
20260506224338 53 0.0 0.0 0.00 0.00 0.00 83 1006.4
20260506220849 56 0.0 0.0 0.00 0.00 0.00 74 1005.9
20260506215849 58 0.0 0.0 0.00 0.00 0.00 68 1005.8
20260506213624 58 0.0 0.0 0.00 0.00 0.00 67 1005.6
20260506212624 59 0.0 0.0 0.00 0.00 0.00 67 1005.4
20260506211624 58 0.0 0.0 0.00 0.00 0.00 67 1005.2
20260506210624 59 0.0 0.0 0.00 0.00 0.00 66 1005.1
20260506205624 59 0.0 0.0 0.00 0.00 0.00 65 1004.7
20260506204625 60 0.0 0.0 0.00 0.00 0.00 64 1004.7
20260506203624 60 0.0 0.0 0.00 0.00 0.00 64 1004.7
20260506202624 60 0.0 0.0 0.00 0.00 0.00 63 1004.6
20260506201625 60 0.0 0.0 0.00 0.00 0.00 63 1004.7
20260506200624 60 0.0 0.0 0.00 0.00 0.00 62 1004.8
20260506195624 61 0.0 0.0 0.00 0.00 0.00 61 1004.7
20260506194624 61 0.0 0.0 0.00 0.00 0.00 60 1004.7
20260506193624 62 0.0 0.0 0.00 0.00 0.00 59 1004.6